Regional Weather Roundup
Issued by NWS

Home | Current Version | Previous Version | Text Only | Print | Product List | Glossary On
Versions: 1 2 3 4 5 6 7 8 9 10 11 12 13 14 15 16 17 18 19 20 21 22 23 24 25 26 27 28 29 30 31 32 33 34 35 36 37 38 39 40 41 42 43 44 45 46 47 48 49 50
000
ASUS43 KMKX 302121
RWRWI

WISCONSIN REGIONAL WEATHER ROUNDUP
NATIONAL WEATHER SERVICE MILWAUKEE/SULLIVAN WI
400 PM CDT TUE SEP 30 2014

NOTE: "FAIR" INDICATES FEW OR NO CLOUDS BELOW 12,000 FEET WITH NO
SIGNIFICANT WEATHER AND/OR OBSTRUCTIONS TO VISIBILITY.

WIZ001-002-006>008-014>016-023>028-302200-
NORTHWEST WISCONSIN

CITY           SKY/WX    TMP DP  RH WIND       PRES   REMARKS
SUPERIOR ARPT  PTSUNNY   49  43  79 NE10G20   30.01F
ASHLAND        SUNNY     52  44  74 NE10      30.04F
HAYWARD        SUNNY     61  42  49 E8        29.98F
SIREN          PTSUNNY   57  43  58 E7        29.96F
CUMBERLAND     MOSUNNY   54  41  62 SE8       29.98F
RICE LAKE      MOSUNNY   56  43  61 E6        29.99F
CHETEK         MOSUNNY   57  44  62 SE7       29.99F
LADYSMITH      SUNNY     62  43  48 E5        30.00F
EAU CLAIRE     MOSUNNY   56  42  59 SE7       29.98F
MENOMONIE      PTSUNNY   56  42  60 E9        29.98F
NEW RICHMOND   PTSUNNY   55  42  61 E7        29.97F
OSCEOLA        PTSUNNY   56  45  65 SE10      29.98F
$$

WIZ003>005-009-010-017-018-302200-
NORTH CENTRAL WISCONSIN

CITY           SKY/WX    TMP DP  RH WIND       PRES   REMARKS
MANITOWISH WTR SUNNY     54  43  65 SE5       30.02F
ARBOR VITAE    SUNNY     57  45  64 E7        30.03S
WOODRUFF       SUNNY     57  45  64 E7        30.03S
RHINELANDER    SUNNY     56  43  61 E7        30.04F
EAGLE RIVER    SUNNY     56  40  55 E3        30.03F
LAND O LAKES   SUNNY     56  42  58 E6        30.04F
PHILLIPS       PTSUNNY   60  43  53 E7        29.99F
TOMAHAWK       SUNNY     57  42  57 NE3       30.02F
MEDFORD        SUNNY     56  43  61 SE6       30.01S
MERRILL        SUNNY     58  43  58 S3        30.02F HAZE
$$

WIZ029-030-035-036-043>047-302200-
CENTRAL WISCONSIN

CITY           SKY/WX    TMP DP  RH WIND       PRES   REMARKS
WAUSAU         SUNNY     55  42  61 E9        30.01F
MOSINEE        SUNNY     54  45  71 SE7       30.03F
MARSHFIELD     SUNNY     55  43  63 SE7       30.01F
STEVENS POINT  SUNNY     50  41  69 SE7       30.03F
WAUPACA        CLOUDY    50  42  74 E6        30.06F
WAUTOMA        NOT AVBL
WISC RAPIDS    SUNNY     54  41  61 E10       30.04F
CAMP DOUGLAS   CLOUDY    50  47  89 SE6       30.03F
$$

WIZ011>013-019>022-031-037>040-048>050-302200-
NORTHEAST WISCONSIN

CITY           SKY/WX    TMP DP  RH WIND       PRES   REMARKS
ANTIGO         SUNNY     54  43  67 SE6       30.04F
SHAWANO        CLOUDY    50  42  74 CALM      30.06F
OCONTO         CLOUDY    50  43  75 NE3       30.06F
STURGEON BAY   NOT AVBL
GREEN BAY      CLOUDY    49  43  80 NE8       30.07F
MANITOWOC      NOT AVBL
APPLETON       CLOUDY    48  39  71 VRB5      30.07F
CLINTONVILLE   CLOUDY    48  41  76 CALM      30.06F
OSHKOSH        CLOUDY    49  44  83 E7        30.04F
$$

WIZ032>034-041-042-053>061-302200-
SOUTHWEST WISCONSIN

CITY           SKY/WX    TMP DP  RH WIND       PRES   REMARKS
LA CROSSE      CLOUDY    57  44  62 E7        29.99F
SPARTA         PTSUNNY   51  41  68 E9        30.02F
VIROQUA        CLOUDY    52  42  69 E7        30.00F
BOSCOBEL       PTSUNNY   54  42  64 E9        30.01F
PRAIRIE DU CHI CLOUDY    58  45  60 NE6       29.98F
PLATTEVILLE    PTSUNNY   56  44  66 E10       30.00F
$$

WIZ056-057-062-063-064-067-068-302200-
SOUTH CENTRAL WISCONSIN

CITY           SKY/WX    TMP DP  RH WIND       PRES   REMARKS
REEDSBURG      CLOUDY    48  42  80 E7        30.04S
BARABOO/DELLS  CLOUDY    48  41  75 E8        30.04F
LONE ROCK      CLOUDY    55  42  61 SE7       30.03F
MINERAL POINT  CLOUDY    52  43  71 E6        30.01F
MADISON        CLOUDY    50  42  74 E9        30.03F
MIDDLETON      CLOUDY    51  42  71 E7        30.04F
WATERTOWN      CLOUDY    51  43  73 E3        30.03F
MONROE         PTSUNNY   50  43  76 NE6       30.02S
JANESVILLE     MOSUNNY   55  43  62 NE7       30.01F
$$

WIZ051-052-058>065-066-070>072-302200-
SOUTHEAST WISCONSIN

CITY           SKY/WX    TMP DP  RH WIND       PRES   REMARKS
MILWAUKEE      CLOUDY    52  45  77 N14G21    30.04F
WAUKESHA       CLOUDY    54  43  66 E8        30.03F
MILWAUKEE/TIMM MOSUNNY   54  41  62 NE10      30.04F
RACINE         LGT RAIN  51  47  86 N16       30.05F FOG
BURLINGTON     CLOUDY    54  42  66 NE6       30.02F
KENOSHA        CLOUDY    54  46  74 VRB6      30.04S
FOND DU LAC    CLOUDY    50  43  77 NE7       30.05F
SHEBOYGAN      CLOUDY    50  43  77 NE7       30.05F
WEST BEND      CLOUDY    50  41  71 NE7       30.04S
JUNEAU         CLOUDY    50  42  73 NE3       30.04F
$$

LSZ147-162-302200-
LAKE SUPERIOR

STATION/POSITION TIME  TEMP    WIND        PRES    WAVE
                       AIR SEA DIR/SP/G            HT/PER
                 (UTC) (F)     (DEG/KT/KT) (MB)    (FT/S)
W MID LAKE BUOY  2050   47 51   70/ 14/ 16 1018.6F   2/ 5
DEVILS ISLAND    2100   46      70/ 18/ 19 1018.0F
SAXON HARBOR     2000   49      40/ 11/ 14 1017.9F
$$

LMZ867-665-643>646-302200-
LAKE MICHIGAN

STATION/POSITION TIME  TEMP    WIND        PRES    WAVE
                       AIR SEA DIR/SP/G            HT/PER
                 (UTC) (F)     (DEG/KT/KT) (MB)    (FT/S)
CHAMBERS ISLAND  2000   50     330/  8/ 11 1018.6S
S GREEN BAY BUOY 2100   49                 1019.1F
N MID LAKE BUOY  2050   51 58   20/  8/ 12 1018.0F   1/ 4
NORTHPORT PIER   2000   50     350/  7/ 10 1017.9F
SISTER BAY       2027           20/ 11/ 13   N/A
KEWAUNEE LAKESHO 2000   49      30/  6/  9 1017.4F
SHEBOYGAN LAKESH 2100   49 54   10/ 12/ 13 1018.1F
PORT WASHINGTON  2040   53      40/ 12/ 15 1017.9F
ATWATER BUOY     2100   51      10/ 16/ 21 1017.9F
MILWAUKEE LAKESH 2100   51      20/ 14/ 19   N/A
S MID LAKE BUOY  2050   54 62   10/ 16/ 17 1016.3F   4/ 6
KENOSHA   LAKESH 2100   52     360/ 11/ 15 1016.9S
$$

TC  - TEMPERATURE IN CELSIUS
VSB - VISIBILITY IN STATUTE MILES
WCI - WIND CHILL INDEX
HX  - HEAT INDEX




USA.gov is the U.S. government's official web portal to all federal, state and local government web resources and services.